Tracking 23762 objects as of 19-Oct-2021
HD Live streaming from Space Station
objects crossing your sky now

CZ-3C DEB

Track CZ-3C DEB now!


NORAD ID: 39346
Int'l Code: 2010-057L
Perigee: 690.6 km
Apogee: 36,840.7 km
Inclination: 21.1 °
Period: 661.0 minutes
Semi major axis: 25136 km
RCS: 0.4467 m2 (medium)
Launch date: October 31, 2010
Source: People's Republic of China (PRC)
Launch site: Xichang Space Center, China (XSC)

Note: This is SATELLITE DEBRIS
aabbcc
Your satellite tracking list
Your tracking list is empty




NASA's NSSDC Master Catalog

Two Line Element Set (TLE):
1 39346U 10057L   21291.54355096 -.00000153  00000-0 -74460-3 0  9995
2 39346  21.1076  18.2660 7190721  78.8802 347.7224  2.17842327 81618
Source of the keplerian elements: AFSPC